Zurück zum Katalog

STARLINK-30207

AktivKommunikationVLEO
NORAD 57407·PAYLOAD·🇺🇸 United States

Gestartet Jul 20, 2023 von Vandenberg Space Force Base

Loading…

Nächste Überflüge (nächste 24 Stunden)

TLE

AktuellSource: CelesTrak SupGP

Epoche: Sep 15, 2026, 02:52 UTC

1 57407C 23102D   26258.11993056 -.00017190  00000+0 -62264-3 0  2588
2 57407  43.0023 244.2727 0001327 262.5616 307.5695 15.27585788    18

Verfolge STARLINK-30207 in Echtzeit mit AllMySat

Download on the App Store